Regional Weather Roundup
Issued by NWS Newport/Morehead, NC

Current Version | Previous Version | Text Only | Print | Product List | Glossary On
Versions: 1 2 3 4 5 6 7 8 9 10 11 12 13 14 15 16 17 18 19 20 21 22 23 24 25 26 27 28 29 30 31 32 33 34 35 36 37 38 39 40 41 42 43 44 45 46 47 48 49 50
000
ASUS42 KMHX 172025
RWRMHX
WEATHER ROUNDUP FOR EASTERN NORTH CAROLINA
NATIONAL WEATHER SERVICE NEWPORT/MOREHEAD CITY NC
300 PM EST FRI NOV 17 2017

NOTE: "FAIR" INDICATES FEW OR NO CLOUDS BELOW 12,000 FEET
WITH NO SIGNIFICANT WEATHER AND/OR OBSTRUCTIONS TO VISIBILITY

NCZ015>017-031-032-045>047-102-103-172100-
NORTH COAST

CITY           SKY/WX    TMP DP  RH WIND       PRES   REMARKS
EDENTON        MOSUNNY   55  35  45 CALM      30.16S
ELIZABETH CITY SUNNY     54  35  48 N3        30.14F
KITTY HAWK     CLEAR     52  35  53 CALM      30.13S
MANTEO         SUNNY     52  37  56 N5        30.15S

$$

NCZ045>047-081-094-103-104-172100-
CENTRAL COAST

CITY           SKY/WX    TMP DP  RH WIND       PRES   REMARKS
FRISCO         SUNNY     54  42  64 NE8G17    30.14F

$$

NCZ095-097-098-100-101-172100-
SOUTHERN COAST

CITY           SKY/WX    TMP DP  RH WIND       PRES   REMARKS
BEAUFORT       SUNNY     57  37  47 NE8       30.14F
CEDAR ISLAND   NOT AVBL
JACKSONVILLE   SUNNY     58  35  42 NE7       30.14F
PINEY ISLAND   NOT AVBL
WILMINGTON     SUNNY     61  35  37 CALM      30.15F


$$

NCZ011>013-027>030-043-044-078>080-089-090>093-098-172100-
COASTAL PLAIN

CITY           SKY/WX    TMP DP  RH WIND       PRES   REMARKS
AHOSKIE        CLOUDY    51  31  45 N3        30.16S
CLINTON        SUNNY     59  35  40 CALM      30.15F
ELIZABETHTOWN  NOT AVBL
GOLDSBORO      MOSUNNY   58  32  38 NW3       30.15S
GREENVILLE     CLOUDY    55  32  41 CALM      30.16F
HAVELOCK       SUNNY     58  38  47 NE9       30.15F
KENANSVILLE    SUNNY     57  32  38 NE6       30.16S
KINSTON        MOSUNNY   57  32  38 N3        30.16F
NEW BERN       CLOUDY    56  36  47 NE7       30.16F
RICHLANDS      SUNNY     57  35  43 NW3       30.15F
ROCKY MOUNT    MOSUNNY   56  32  40 VRB3      30.16F
WASHINGTON     CLOUDY    56  33  42 N5        30.16S
WHITEVILLE     SUNNY     58  33  39 CALM      30.15S

$$

AMZ130-135-150-152-154-156-158-170-250-252-270-ANZ085-086-088-633-658-670-172100-
MARINE OBSERVATIONS

STATION/POSITION TIME  TEMP    WIND        PRES    WAVE   SWELL
                       AIR SEA DIR/SP/G            HT/PER HT/PER
                 (UTC) (F)     (DEG/KT/KT) (MB)    (FT/S) (FT/S)
CHESAPEAKE LIGHT NOT AVBL
64 E VA BEACH    1950   51 61  330/ 14/ 17 1020.3    5/13   3/13
DUCK             NOT AVBL
2 E DUCK         2000      60                N/A     4/ 6   2/11
OREGON INLET     NOT AVBL
13E OREGON INLT  1948      62                N/A     6/ 7   2/13
HATTERAS CG      NOT AVBL
DIAMOND BUOY     2000   54 65   10/ 17/ 19 1020.7
CAPE LOOKOUT     2000   54      10/  8/  9 1020.9
BEAUFORT LAB     NOT AVBL
30 SE NEW RVR IN 2008   55 71   60/  8/ 12 1020.6
30 SE NEW RVR IN 2000      71                N/A     4/13   2/13
27 SE WRIGHTSVLE 2008   56 68   50/  8/ 14 1020.8
5 SE WRIGHTSVLE  2008   55 64   70/  4/  8 1020.8
225 S CAPE HAT   1950   69 77   20/ 16/ 19 1017.4    8/ 7   5/12
41 SE CHARLESTON 2010   63 75   30/ 12/ 16 1020.2

$$




USA.gov is the U.S. government's official web portal to all federal, state and local government web resources and services.